Showing default

SAUDISAT 5A, 43831

Orbit data source: Space-Track

SAUDISAT 5A, 43831 is a payload satellite owned by KACST (SA) in SSO that was launched on Fri, 07 Dec 2018 UTC via a CHANG ZHENG 2D launch vehicle from the Jiuquan Satellite Launch Center, China (JSC). Payload-class satellites include a variety of spacecraft equipped with specific instruments for various scientific and technological missions. These include communications satellites like Starlink; space stations such as the ISS; scientific satellites like the Hubble; Earth observation satellites from companies like Planet Labs, Umbra, and HawkEye 360; GPS; miniature CubeSats for education and research; and military/defense satellites.

Loading next visibility...
Identifier
43831, 2018-102A
Orbit
SSO
Country
Flag of UnknownUnknown / SAUD
Related business
Manufacturer
KACST
Mission
Operational Civil Technology
Bus & Motor
SAUDISAT, Unknown motor
Mass
425 kg wet, 425 kg dry
Launch date (UTC)
2018-12-07 (7 years ago)
Launch vehicle
CHANG ZHENG 2D
Launch site
Jiuquan Satellite Launch Center, China (JSC)
Object type
Payload
Rocket body
Debris
Shape & HBR
Box, 1.0 m
Radar Cross Section
2.500 m², Large (>1 m²)

Expand to show TLE details & history
Last TLE update: 6 hours ago

TLE from 6 hours ago
0 SAUDISAT 5A
1 43831U 18102A   25354.20207979  .00004327  00000-0  17213-3 0  9999
2 43831  97.3346  54.2495 0011427  53.2866 306.9420 15.25742191388366
Epoch: 2025-12-20T04:50Z
TLE epoch observation values (Epoch: 2025-12-20T04:50:59.693Z)
Latitude
-0.00009°
Longitude
-107.53148°
Altitude
486.947 km
Speed
7.624 km/s
True Right ascension
03h 36m 59s
True Declination
0° 00' 00"
Sunlit
Object was in full shadow at epoch
Visualization orbit readout
Latitude
Unknown
Longitude
Unknown
Altitude
Unknown
Speed
Unknown
Apparent Right ascension
Unknown
Apparent Declination
Unknown
Sunlit
N/A
Visualization observer readout
Local Sidereal Time
09:56:27
Azimuth
Unknown
Elevation
Unknown
Doppler factor
Unknown
Orbital elements
Apogee altitude
493.356 km
Perigee altitude
477.67 km
Semi-major axis
6,863.65 km
Eccentricity
0.00114
Inclination
97.3346°
RAAN
54.2495°
Arg. of periapsis
53.2866°
True anomaly
306.83725°
Mean anomaly
306.942°
Eccentric anomaly
306.88964°
Mean motion
3.8169 °/min
Orbital period
94.32 mins
BSTAR
0.00017213
Loading maneuver chart data...
Computing Atmospheric mass density...
Loading historical data...
Loading historical data...
Loading historical data...
Loading historical data...
Loading historical data...
Loading historical data...
Loading historical data...

Documentation

Showing up to 5 results
|